Weather History for Hot Springs, AR

Change the Weather History Date:

Thursday, January 23, 2014

  Actual Average Record
Temperature  
Mean Temperature 30 °F -  
Max Temperature 37 °F 52 °F 75 °F (2002)
Min Temperature 21 °F 31 °F 11 °F (1963)
Degree Days  
Heating Degree Days 35    
Moisture  
Dew Point 4 °F    
Average Humidity 35    
Maximum Humidity 61    
Minimum Humidity 19    
Precipitation  
Precipitation 0.00 in - - ()
Sea Level Pressure  
Sea Level Pressure 30.57 in    
Wind  
Wind Speed 6 mph (NE)    
Max Wind Speed 13 mph    
Max Gust Speed 21 mph    
Visibility 10 miles    
Events      
Averages and records for this station are not official NWS values.
T = Trace of Precipitation, MM = Missing Value Source: NWS Daily Summary

Daily Weather History Graph

Daily Weather History Graph

Search for Another Location

Airport:

Trip Planner

Search our weather history database for the weather conditions in past years. The results will help you decide how hot, cold, wet, or windy it might be!

Date:

Astronomy

Jan. 23, 2014 Rise Set
Actual Time 7:15 AM CST 5:33 PM CST
Civil Twilight 6:48 AM CST 6:00 PM CST
Nautical Twilight 6:18 AM CST 6:30 PM CST
Astronomical Twilight 5:48 AM CST 7:00 PM CST
Moon No Moon Rise 11:10 AM CST (1/23)
Length of Visible Light 11h 11m
Length of Day
10h 17m
Waning Gibbous, 55% of the Moon is Illuminated
Jan 23
Waning Gibbous
Jan 23
Last Quarter
Jan 30
New
Feb 6
First Quarter
Feb 14
Full

Hourly Weather History & Observations

Time (CST) Temp. Windchill Dew Point Humidity Pressure Visibility Wind Dir Wind Speed Gust Speed Precip Events Conditions
12:53 AM 37.0 °F - 19.0 °F 48% 30.28 in 10.0 mi Calm Calm - N/A   Clear
1:53 AM 35.1 °F 31.0 °F 19.0 °F 52% 30.31 in 10.0 mi NE 4.6 mph - N/A   Clear
2:53 AM 34.0 °F - 19.0 °F 54% 30.33 in 10.0 mi Calm Calm - N/A   Clear
3:53 AM 32.0 °F - 19.9 °F 61% 30.34 in 10.0 mi Calm Calm - N/A   Clear
4:53 AM 35.1 °F 31.0 °F 14.0 °F 42% 30.35 in 10.0 mi NNE 4.6 mph - N/A   Clear
5:53 AM 35.1 °F 32.2 °F 12.9 °F 40% 30.40 in 10.0 mi North 3.5 mph - N/A   Clear
6:53 AM 34.0 °F 25.5 °F 12.0 °F 40% 30.45 in 10.0 mi NE 11.5 mph - N/A   Clear
7:53 AM 33.1 °F 26.1 °F 12.0 °F 42% 30.51 in 10.0 mi NNE 8.1 mph - N/A   Overcast
8:53 AM 32.0 °F 24.2 °F 12.0 °F 44% 30.53 in 10.0 mi NE 9.2 mph - N/A   Overcast
9:53 AM 30.0 °F 20.0 °F 7.0 °F 38% 30.58 in 10.0 mi NE 12.7 mph 20.7 mph N/A   Overcast
10:53 AM 30.0 °F 20.0 °F 5.0 °F 35% 30.62 in 10.0 mi ENE 12.7 mph - N/A   Overcast
11:53 AM 30.0 °F 20.0 °F -0.0 °F 28% 30.63 in 10.0 mi NE 12.7 mph 18.4 mph N/A   Scattered Clouds
12:53 PM 30.9 °F 21.7 °F -4.0 °F 22% 30.63 in 10.0 mi North 11.5 mph 16.1 mph N/A   Scattered Clouds
1:53 PM 30.9 °F 22.2 °F -4.0 °F 22% 30.62 in 10.0 mi NE 10.4 mph - N/A   Overcast
2:53 PM 30.9 °F 22.8 °F -2.0 °F 24% 30.63 in 10.0 mi NNE 9.2 mph 16.1 mph N/A   Overcast
3:53 PM 30.0 °F 21.1 °F -8.0 °F 19% 30.65 in 10.0 mi NE 10.4 mph - N/A   Overcast
4:53 PM 30.0 °F 22.4 °F -7.1 °F 20% 30.66 in 10.0 mi NE 8.1 mph - N/A   Overcast
5:53 PM 28.0 °F 21.7 °F -5.1 °F 24% 30.69 in 10.0 mi Variable 5.8 mph - N/A   Mostly Cloudy
6:53 PM 27.0 °F 21.6 °F -4.0 °F 26% 30.71 in 10.0 mi Variable 4.6 mph - N/A   Partly Cloudy
7:53 PM 25.0 °F 16.3 °F -2.9 °F 30% 30.73 in 10.0 mi ENE 8.1 mph - N/A   Clear
8:53 PM 25.0 °F 16.3 °F -5.1 °F 27% 30.76 in 10.0 mi NE 8.1 mph - N/A   Clear
9:53 PM 24.1 °F 16.0 °F -5.1 °F 28% 30.78 in 10.0 mi NE 6.9 mph - N/A   Clear
10:53 PM 23.0 °F 14.7 °F -4.0 °F 31% 30.78 in 10.0 mi NE 6.9 mph - N/A   Clear
11:53 PM 21.0 °F 13.4 °F -4.0 °F 33% 30.78 in 10.0 mi NE 5.8 mph - N/A   Clear